Regional Weather Roundup
Issued by NWS Newport/Morehead, NC

Current Version | Previous Version | Graphics & Text | Print | Product List | Glossary Off
Versions: 1 2 3 4 5 6 7 8 9 10 11 12 13 14 15 16 17 18 19 20 21 22 23 24 25 26 27 28 29 30 31 32 33 34 35 36 37 38 39 40 41 42 43 44 45 46 47 48 49 50

000
ASUS42 KMHX 221013
RWRMHX
WEATHER ROUNDUP FOR EASTERN NORTH CAROLINA
NATIONAL WEATHER SERVICE NEWPORT/MOREHEAD CITY NC
600 AM EDT FRI MAY 22 2015

NOTE: "FAIR" INDICATES FEW OR NO CLOUDS BELOW 12,000 FEET
WITH NO SIGNIFICANT WEATHER AND/OR OBSTRUCTIONS TO VISIBILITY

NCZ015>017-031-032-045>047-102-103-221100-
NORTH COAST

CITY           SKY/WX    TMP DP  RH WIND       PRES   REMARKS
EDENTON        PTCLDY    55  52  90 N7        30.05R
ELIZABETH CITY PTCLDY    54  50  86 NW10      30.04R
KITTY HAWK     PTSUNNY   58  53  81 NW7       30.01R
MANTEO         MOCLDY    58  51  78 N14G21    30.03R

$$

NCZ045>047-081-094-103-104-221100-
CENTRAL COAST

CITY           SKY/WX    TMP DP  RH WIND       PRES   REMARKS
FRISCO         CLOUDY    60  54  80 N8        30.02R
SWANQUARTER      N/A     57 N/A N/A N2G8      30.00R

$$

NCZ095-097-098-100-101-221100-
SOUTHERN COAST

CITY           SKY/WX    TMP DP  RH WIND       PRES   REMARKS
BEAUFORT       CLOUDY    59  56  89 N8        30.03R
CEDAR ISLAND     N/A     63 N/A N/A N16G28    30.09R
JACKSONVILLE   CLOUDY    60  56  86 N10       30.04R
PINEY ISLAND   CLOUDY   N/A N/A N/A N13       30.04R
WILMINGTON     MOCLDY    60  56  86 N7        30.04R


$$

NCZ011>013-027>030-043-044-078>080-089-090>093-098-221100-
COASTAL PLAIN

CITY           SKY/WX    TMP DP  RH WIND       PRES   REMARKS
AHOSKIE        PTCLDY    53  51  94 CALM      30.08R
CLINTON        PTCLDY    60  55  85 N6        30.07R
ELIZABETHTOWN  CLOUDY    61  57  86 CALM      30.06R
GOLDSBORO      MOCLDY    59  55  87 N3        30.05R
GREENVILLE     MOCLDY    55  54  94 N5        30.08R
HAVELOCK       MOCLDY    60  53  77 N14G20    30.05R
KENANSVILLE    MOCLDY    58  55  88 N5        30.06R
KINSTON        PTCLDY    58  55  92 N6        30.07R
NEW BERN       CLOUDY    59  54  83 N9        30.06R
RICHLANDS      CLOUDY    57  52  82 NW5       30.06R
ROCKY MOUNT    MOCLDY    57  54  89 NW7       30.07R
WASHINGTON     MOCLDY   N/A N/A N/A N5        30.07R
WHITEVILLE     CLOUDY    62  56  79 N5        30.05R

$$

AMZ130-135-150-152-154-156-158-170-250-252-270-ANZ085-086-088-633-658-670-221100-
MARINE OBSERVATIONS

STATION/POSITION TIME  TEMP    WIND        PRES    WAVE   SWELL
                       AIR SEA DIR/SP/G            HT/PER HT/PER
                 (UTC) (F)     (DEG/KT/KT) (MB)    (FT/S) (FT/S)
CHESAPEAKE LIGHT 0900   58     330/ 22/ 24 1015.7
64 E VA BEACH    0950   58 60  340/ 21/ 27 1014.7    7/ 7   2/11
DUCK             0900   60 66  340/ 22/ 28 1013.6
2 E DUCK         0911      64                N/A     5/ 6
OREGON INLET     0900   59 68  330/  7/ 11 1015.4
13E OREGON INLT  1000      60                N/A     7/ 7
HATTERAS CG      0900   62 73  320/ 18/ 20 1015.2
DIAMOND BUOY     0950   64 76  330/ 17/ 19 1015.8    4/ 7   2/11
CAPE LOOKOUT     1000   60     350/ 14/ 16 1016.6
BEAUFORT LAB     0900   61 74   10/ 12/ 15 1015.4
27 SE WRIGHTSVLE 0900   64 78   20/ 17/ 19   N/A
5 SE WRIGHTSVLE  0908   64 76   10/ 14/ 19 1016.4
225 S CAPE HAT   0950   75 74  240/ 10/ 12 1015.0    4/ 6   3/ 6
41 SE CHARLESTON 0950   72 76   40/ 23/ 27 1014.3    5/ 4   2/ 8

$$


USA.gov is the U.S. government's official web portal to all federal, state and local government web resources and services.